Location: Lake Crest
(37.6062°N, 88.9176°W)
Time: 12:47:07
(UTC+00:00)

GEOS 3 Rocket - Pass Details

Date: 15 December 2019
Orbit: 783 x 836 km, 115.0° (Epoch: 18 January)

Event Time Altitude Azimuth Distance (km) Brightness Sun altitude
Rises 11:41:20 0° 142° (SE) 3,256 7.7 -15.7°
Reaches altitude 10° 11:43:35 10° 141° (SE) 2,333 6.9 -15.3°
Maximum altitude 11:48:38 82° 55° (NE) 799 3.6 -14.3°
Enters shadow 11:53:33 11° 328° (NNW) 2,278 5.5 -13.4°
